Location: Leuk
(46.3174°N, 7.6341°E)
Time: 14:00:13
(UTC+00:00)

SJ-12 - Pass Details

Date: 09 March 2021
Orbit: 567 x 585 km, 97.7° (Epoch: 17 April)

Event Time Altitude Azimuth Distance (km) Brightness Sun altitude
Rises 04:23:58 0° 16° (NNE) 2,787 7.8 -16.3°
Reaches altitude 10° 04:26:09 10° 20° (NNE) 1,882 6.9 -15.9°
Maximum altitude 04:30:11 61° 101° (E) 648 4.4 -15.2°
Drops below altitude 10° 04:34:11 10° 182° (S) 1,862 6.4 -14.5°
Sets 04:36:20 0° 186° (S) 2,754 7.2 -14.2°
